This demonstration page uses our WeatherBlox Daily Observations layout. Learn more.

Left ArrowRight Arrow

39.01783, -85.05884

Hourly Observations for September 18, 2018

Temp ( °F °C ) Dew Point ( °F °C ) Humidity (%) Winds ( mph kmh ) Pressure ( in mb ) Visibility ( mi km ) Precip ( " mm )
12:52 am 00:52 Clear 69 20.6 68 20 96 96 N N/A 29.92 1013 10 16 N/A
1:52 am 01:52 Clear 67 19.4 67 19.4 100 100 SW 3 6 29.92 1013 9 14 N/A
2:52 am 02:52 Clear 67 19.4 67 19.4 100 100 N N/A 29.92 1013 9 14 N/A
3:52 am 03:52 Partly Cloudy 67 19.4 67 19.4 100 100 SSW 3 6 29.92 1013 7 11 N/A
4:52 am 04:52 Mostly Clear with Mist and Fog 68 20 67 19.4 96 96 N N/A 29.92 1013 6 10 N/A
5:52 am 05:52 Mostly Clear with Patchy Fog 66 18.9 66 18.9 100 100 S 3 6 29.92 1013 5 8 N/A
6:47 am 06:47 Clear with Patchy Fog 66 19 66 19 100 100 SW 5 7 29.94 1014 2 2 N/A
6:52 am 06:52 Mostly Clear with Patchy Fog 65 18.3 65 18.3 100 100 SW 3 6 29.93 1014 5 8 N/A
7:52 am 07:52 Partly Cloudy with Mist and Fog 66 18.9 66 18.9 100 100 N N/A 29.94 1014 6 10 N/A
8:52 am 08:52 Mostly Sunny 70 21.1 70 21.1 100 100 SSW 3 6 29.95 1014 10 16 N/A
9:52 am 09:52 Mostly Cloudy 78 25.6 72 22.2 82 82 N N/A 29.95 1014 10 16 N/A
10:52 am 10:52 Mostly Cloudy 82 27.8 70 21.1 67 67 VRB 3 6 29.95 1014 10 16 N/A
11:52 am 11:52 Partly Cloudy 84 28.9 72 22.2 67 67 N N/A 29.94 1014 10 16 N/A
12:52 pm 12:52 Partly Cloudy 85 29.4 70 21.1 61 61 N N/A 29.93 1014 10 16 N/A
1:52 pm 13:52 Mostly Sunny 87 30.6 69 20.6 55 55 SSW 8 13 29.92 1013 10 16 N/A
2:52 pm 14:52 Mostly Sunny 88 31.1 71 21.7 57 57 SW 7 11 29.90 1013 10 16 N/A
3:52 pm 15:52 Mostly Sunny 89 31.7 69 20.6 52 52 WSW 7 11 29.89 1012 10 16 N/A
4:52 pm 16:52 Mostly Sunny 89 31.7 66 18.9 47 47 W 9 15 29.88 1012 10 16 N/A
5:52 pm 17:52 Mostly Sunny 88 31.1 64 17.8 45 45 WSW 9 15 29.88 1012 10 16 N/A
6:52 pm 18:52 Mostly Sunny 85 29.4 64 17.8 50 50 WSW 5 7 29.88 1012 10 16 N/A
7:52 pm 19:52 Mostly Clear 82 27.8 63 17.2 53 53 SW 6 9 29.88 1012 10 16 N/A
8:52 pm 20:52 Clear 76 24.4 66 18.9 72 72 SW 6 9 29.89 1012 10 16 N/A
9:52 pm 21:52 Clear 77 25 65 18.3 66 66 WSW 6 9 29.90 1012 10 16 N/A
10:52 pm 22:52 Mostly Clear 75 23.9 65 18.3 71 71 WSW 5 7 29.90 1013 10 16 N/A
11:52 pm 23:52 Mostly Clear 71 21.7 66 18.9 84 84 N N/A 29.91 1013 10 16 N/A

Powered by AerisWeather